Regional Weather Roundup
Issued by NWS Huntsville, AL

Home | Current Version | Previous Version | Text Only | Print | Product List | Glossary On
Versions: 1 2 3 4 5 6 7 8 9 10 11 12 13 14 15 16 17 18 19 20 21 22 23 24 25 26 27 28 29 30 31 32 33 34 35 36 37 38 39 40 41 42 43 44 45 46 47 48 49 50
000
ASUS44 KHUN 200110
RWRHUN

WEATHER ROUNDUP FOR THE TENNESSEE VALLEY
NATIONAL WEATHER SERVICE HUNTSVILLE AL
800 PM CDT THU OCT 19 2017

ALZ001>004-200200-
NORTHWEST ALABAMA

CITY           SKY/WX    TMP DP  RH WIND       PRES   REMARKS
COURTLAND HCN    N/A     57 N/A N/A CALM        N/A
RUSSELLVILLE     N/A     55 N/A N/A MISG        N/A
SHOALS AIRPORT CLEAR     56  49  77 CALM      30.25R
SHOALS TVA RES   N/A     57 N/A N/A MISG        N/A
$$

ALZ005>007-016-200200-
NORTH CENTRAL ALABAMA

CITY           SKY/WX    TMP DP  RH WIND       PRES   REMARKS
CULLMAN AG STN   N/A     55 N/A N/A CALM        N/A
DECATUR AP     CLEAR     53  53 100 CALM      30.25R
HUNTSVILLE AP  CLEAR     59  52  77 E3        30.24S
MERIDIANVILLE  CLEAR     54  50  87 CALM      30.26R
REDSTONE ARSN  CLEAR    N/A N/A N/A CALM      30.24R
VINEMONT AP    FAIR      53  51  93 NE3       30.27S
$$

ALZ008>010-200200-
NORTHEAST ALABAMA

CITY           SKY/WX    TMP DP  RH WIND       PRES   REMARKS
ALBERTVILLE    CLEAR     57  55  94 E3        30.25S
FORT PAYNE     CLEAR     54  50  87 CALM      30.25S
SCOTTSBORO AP  CLEAR     54  52  94 CALM      30.26R
SCOTTSBORO HCN   N/A     52 N/A N/A MISG        N/A
VALLEY HEAD      N/A     54 N/A N/A MISG        N/A
$$

TNZ076-096-097-200200-
SOUTHEASTERN MIDDLE TENNESSEE

CITY           SKY/WX    TMP DP  RH WIND       PRES   REMARKS
TULLAHOMA      CLEAR     50  46  87 CALM      30.27S
WINCHESTER     CLEAR     54  48  82 CALM        N/A
$$

...SURROUNDING SITES...

CITY           SKY/WX    TMP DP  RH WIND       PRES   REMARKS
ATLANTA        PTCLDY    65  42  43 CALM      30.25R
ANNISTON       CLEAR     59  55  87 CALM      30.24S
BIRMINGHAM     PTCLDY    59  52  77 CALM      30.26R
CHATTANOOGA    PTCLDY    58  50  75 CALM      30.26R
CORINTH        FAIR      57  54  88 CALM      30.22R
DALTON         CLEAR     52  52 100 CALM      30.28R
GADSDEN        CLEAR     53  51  93 CALM      30.25S
GOLDEN TRNGL   CLEAR     63  54  72 E3        30.22R
HALEYVILLE     FAIR      54  53  97 CALM      30.26S
JACKSON TN     CLEAR     56  54  93 S5        30.22R
MEMPHIS        CLOUDY    65  52  62 S5        30.20R
NASHVILLE      CLEAR     61  49  64 S5        30.24S
OXFORD MS      FAIR      57  54  88 CALM      30.22S
ROME           CLEAR     55  54  96 CALM      30.25R
SAVANNAH       PTCLDY    55  54  94 CALM      30.22S
SELMER         CLEAR     57  52  82 CALM      30.22S
TUPELO         CLEAR     60  51  72 CALM      30.21S
TUSCALOOSA     CLEAR     60  58  92 CALM      30.22R
$$

...GULF COAST WEATHER...

CITY           SKY/WX    TMP DP  RH WIND       PRES   REMARKS
GULFPORT       CLEAR     69  66  90 CALM      30.15R
PASCAGOULA     CLEAR     66  62  87 N3        30.16R
MOBILE         CLEAR     69  61  75 N6        30.18R
GULF SHORES    CLEAR     69  61  76 N6        30.16R
PENSACOLA      PTCLDY    69  59  70 N5        30.15R
DESTIN         PTCLDY    76  60  57 CALM      30.16R
PANAMA CITY    CLEAR     74  60  62 NE5       30.15R
APPALACHICOLA  PTCLDY    72  66  81 NE3       30.14R
$$




USA.gov is the U.S. government's official web portal to all federal, state and local government web resources and services.